Вернуться в каталог

ONEWEB-0332

АктивенСвязьPO
NORAD 49279·PAYLOAD·🇬🇧 United Kingdom

Запущен Oct 14, 2021 с Vostochny Cosmodrome

Loading…

Ближайшие Пролёты (ближайшие 24 часа)

TLE

СвежийSource: CelesTrak SupGP

Эпоха: Sep 14, 2026, 16:06 UTC

1 49279C 21090A   26257.67102266 -.00001221  00000+0 -32970-2 0  2572
2 49279  87.8893 271.8633 0002033  88.1331 334.8576 13.14502937    10

Отслеживайте ONEWEB-0332 в реальном времени с AllMySat

Download on the App Store